Location: Unspecified
(49.2170°N, 0.0000°E)
Time: 01:19:33
(UTC+00:00)

Transit 4A - Pass Details

Date: 23 June 2019
Orbit: 863 x 981 km, 66.8° (Epoch: 17 August)

Event Time Altitude Azimuth Distance (km) Brightness Sun altitude
Rises 16:22:00 0° 323° (NW) 3,694 11.4 33.7°
Reaches altitude 10° 16:24:35 10° 323° (NW) 2,738 10.9 33.3°
Maximum altitude 16:31:01 85° 237° (WSW) 977 8.7 32.2°
Drops below altitude 10° 16:37:17 10° 149° (SSE) 2,667 10.1 31.2°
Sets 16:39:47 0° 149° (SSE) 3,592 10.7 30.8°
